Lamar, CO

7:13 PM MST on February 25, 2018 (GMT -0700)
Lamar Municipal

Weather History for KLAA - July, 2013

Change the Weather History Date:

Tuesday, July 2, 2013

  Actual Average Record
Temperature  
Mean Temperature 69 °F 76 °F  
Max Temperature 86 °F 92 °F 105 °F (1921)
Min Temperature 52 °F 60 °F 46 °F (1997)
Degree Days  
Heating Degree Days 0 0  
Month to date heating degree days 0 0  
Since 1 June heating degree days 16 20  
Since 1 July heating degree days 0 0  
Cooling Degree Days 4 11  
Month to date cooling degree days 7 22  
Year to date cooling degree days 530 302  
Since 1 June cooling degree days 389 242  
Growing Degree Days 18 (Base 50)    
Moisture  
Dew Point 44 °F    
Average Humidity 52    
Maximum Humidity 83    
Minimum Humidity 20    
Precipitation  
Precipitation 0.00 in 0.07 in 1.43 in (1950)
Month to date precipitation 0.14 0.15  
Year to date precipitation 2.95  
Sea Level Pressure  
Sea Level Pressure 30.05 in    
Wind  
Wind Speed 7 mph (ESE)    
Max Wind Speed 17 mph    
Max Gust Speed 22 mph    
Visibility 8 miles    
Events      
T = Trace of Precipitation, MM = Missing Value Source: NWS Daily Summary

Daily Weather History Graph

Daily Weather History Graph

Search for Another Location

Airport or City:

Trip Planner

Search our weather history database for the weather conditions in past years. The results will help you decide how hot, cold, wet, or windy it might be!

Date:

Astronomy

Jul. 02, 2013 Rise Set
Actual Time 5:32 AM MDT 8:17 PM MDT
Civil Twilight 5:00 AM MDT 8:48 PM MDT
Nautical Twilight 4:21 AM MDT 9:27 PM MDT
Astronomical Twilight 3:37 AM MDT 10:12 PM MDT
Moon 1:33 AM MDT (7/2) 3:35 PM MDT (7/2)
Length of Visible Light 15h 47m
Length of Day
14h 45m
Waning Crescent, 26% of the Moon is Illuminated
Jul 2
Waning Crescent
Jul 8
New
Jul 15
First Quarter
Jul 22
Full
Jul 29
Last Quarter

Hourly Weather History & Observations

Time (MDT) Temp. Dew Point Humidity Pressure Visibility Wind Dir Wind Speed Gust Speed Precip Events Conditions
12:53 AM 62.1 °F 50.0 °F 65% 30.14 in 9.0 mi East 6.9 mph - N/A   Clear
1:53 AM 59.0 °F 51.1 °F 75% 30.13 in 9.0 mi East 5.8 mph - N/A   Clear
2:53 AM 57.0 °F 48.9 °F 74% 30.13 in 9.0 mi Calm Calm - N/A   Clear
3:53 AM 55.0 °F 48.9 °F 80% 30.12 in 9.0 mi ENE 5.8 mph - N/A   Clear
4:53 AM 54.0 °F 48.9 °F 83% 30.12 in 8.0 mi Calm Calm - N/A   Partly Cloudy
5:53 AM 53.1 °F 48.0 °F 83% 30.13 in 7.0 mi East 5.8 mph - N/A   Clear
6:53 AM 55.9 °F 48.0 °F 75% 30.12 in 6.0 mi Calm Calm - N/A   Haze
8:53 AM 72.0 °F 48.9 °F 44% 30.10 in 6.0 mi Variable 4.6 mph - N/A   Haze
9:53 AM 75.9 °F 46.9 °F 36% 30.07 in 8.0 mi SE 5.8 mph - N/A   Clear
10:53 AM 79.0 °F 46.0 °F 31% 30.06 in 8.0 mi SE 6.9 mph - N/A   Partly Cloudy
11:53 AM 79.0 °F 44.1 °F 29% 30.06 in 9.0 mi Variable 5.8 mph - N/A   Mostly Cloudy
12:53 PM 81.0 °F 43.0 °F 26% 30.05 in 9.0 mi ENE 5.8 mph 16.1 mph N/A   Clear
1:53 PM 84.0 °F 42.1 °F 23% 30.02 in 8.0 mi SE 11.5 mph 18.4 mph N/A   Clear
2:53 PM 84.0 °F 41.0 °F 22% 30.01 in 8.0 mi East 10.4 mph 19.6 mph N/A   Clear
3:53 PM 84.0 °F 39.9 °F 21% 30.00 in 8.0 mi ESE 9.2 mph - N/A   Partly Cloudy
4:53 PM 84.0 °F 39.0 °F 20% 30.00 in 8.0 mi East 8.1 mph 17.3 mph N/A   Scattered Clouds
5:53 PM 82.0 °F 39.0 °F 22% 29.99 in 8.0 mi Calm Calm - N/A   Partly Cloudy
6:53 PM 81.0 °F 39.0 °F 22% 29.99 in 7.0 mi ESE 10.4 mph - N/A   Clear
7:53 PM 78.1 °F 39.0 °F 25% 29.99 in 7.0 mi SE 11.5 mph - N/A   Clear
8:53 PM 73.0 °F 41.0 °F 31% 29.99 in 8.0 mi SE 8.1 mph - N/A   Partly Cloudy
9:53 PM 70.0 °F 41.0 °F 35% 30.01 in 8.0 mi SE 9.2 mph - N/A   Clear
10:53 PM 68.0 °F 42.1 °F 39% 30.00 in 8.0 mi SSE 11.5 mph - N/A   Clear
11:53 PM 64.9 °F 45.0 °F 48% 30.01 in 9.0 mi SE 11.5 mph - N/A   Clear